{"data":{"norad_id":60099,"intl_designator":"2024-117J","name":"STARLINK-31732","alt_names":[],"object_type":"PAYLOAD","status":"ACTIVE","operator":null,"country":"US","launch_date":"2024-06-23","launch_site_code":"AFETR","launch_vehicle":null,"mission":null,"orbit_class":"UNKNOWN","rcs_meters":null,"size_class":null,"mass_kg":null,"dimensions":null,"purposes":["comms"],"wikipedia_slug":null,"has_3d_model":false,"image_url":null,"decayed_at":null,"tle_current":{"epoch":"2026-09-21T02:43:55.744032Z","epoch_age_seconds":125169,"freshness":"FRESH","line1":"1 60099U 24117J   26264.11383963  .00001609  00000+0  58754-4 0  9991","line2":"2 60099  53.1585 206.7842 0001358  86.3901 273.7257 15.34390702126844","mean_motion":15.34390702,"eccentricity":0.0001358,"inclination_deg":53.1585,"raan_deg":206.7842,"arg_perigee_deg":86.3901,"mean_anomaly_deg":273.7257,"bstar":5.8754e-5,"rev_number":12684,"period_min":93.848326773815,"perigee_km":461.80188610457,"apogee_km":463.65986581968,"semimajor_km":6840.8678759621,"source":"CELESTRAK","updated_at":"2026-09-22T09:00:49.151228Z"}}}